[[{"header":{"parameterUnit":"m.s-1","parameterCategory":1,"la1":30.2992,"la2":30.254,"lo1":-89.0895,"lo2":-89.0443,"dy":0.0025,"dx":0.0025,"nx":19,"ny":19,"refTime":"2026-04-26T09:00:00:Z","depth":0,"parameterNumber":2,"parameterNumberName":"U-component_of_WINDS"},"data":[0,0,0,0.2458,0.2461,0.2629,0.263,0.283,0.2831,0,0,0,0,0,0,0,0,0,0,0,0.2396,0.2396,0.2457,0.2461,0.2629,0.263,0.2829,0.2831,0,0,0,0,0,0,0,0,0,0,0,0.2395,0.2396,0.2397,0.2462,0.2629,0.263,0.2829,0.2708,0,0,0,0,0,0,0,0,0,0,0.2548,0.2478,0.2396,0.2397,0.2463,0.2629,0.263,0.2703,0.2716,0.2746,0,0.2766,0,0.2802,0.2843,0.2844,0,0,0,0.2471,0.2467,0.2523,0.2397,0.2464,0.2628,0.2556,0.271,0.2725,0.2763,0.277,0.2778,0.2805,0.2845,0.2845,0.2977,0.2977,0,0,0.2462,0.242,0.2513,0.2532,0.2501,0.2551,0.2561,0.272,0.2725,0.277,0.2783,0.2808,0.2846,0.2847,0.2976,0.2977,0,0,0,0.2429,0.2413,0.2466,0.2523,0.2554,0.2555,0.2568,0.2718,0.2739,0.2785,0.2811,0.2847,0.2849,0.2976,0.2976,0.294,0,0,0,0.2424,0.2394,0.2461,0.2437,0.2551,0.2638,0.2562,0.2728,0.2747,0.281,0.2847,0.2851,0.2976,0.2976,0.2941,0.2931,0,0,0,0.2389,0.239,0.2409,0.2434,0.2505,0.2636,0.2666,0.2733,0.2762,0.2844,0.2851,0.2976,0.2976,0.2942,0.2932,0.2953,0,0,0,0.2341,0.2377,0.2408,0.2459,0.2503,0.2611,0.2665,0.2749,0.2815,0.2848,0.2976,0.2976,0.2942,0.2933,0.2953,0.2962,0.2961,0,0,0.2363,0.2378,0.2412,0.2444,0.2535,0.2589,0.2677,0.2779,0.2828,0.2925,0.2929,0.2941,0.2933,0.2953,0.2973,0.2972,0,0,0,0.2405,0.2428,0.2461,0.252,0.2597,0.2662,0.2755,0.2793,0.2877,0.2868,0.2955,0.2952,0.2965,0.2972,0.2971,0.2986,0.2977,0.2977,0.2977,0.2377,0.2434,0.2493,0.2569,0.2626,0.272,0.2772,0.284,0.2883,0.2903,0.2932,0.2937,0.2943,0.2943,0.2957,0.2941,0.2941,0.2941,0.2941,0.2416,0.2458,0.2511,0.2587,0.2648,0.2714,0.2806,0.2834,0.2906,0.292,0.2935,0.2945,0.294,0.2956,0.2939,0.2939,0.294,0.294,0.294,0.2404,0.2434,0.2477,0.2567,0.2631,0.2709,0.2774,0.2828,0.288,0.2895,0.2932,0.2932,0.294,0.2908,0.2908,0.2908,0.2908,0.2908,0.2908,0.2375,0.2425,0.2471,0.2554,0.2598,0.2664,0.2758,0.2805,0.2871,0.2905,0.2906,0.2947,0.2928,0.2922,0.2909,0.2909,0.2909,0.2909,0.2909,0.2393,0.2397,0.2469,0.2513,0.2615,0.2675,0.2742,0.2832,0.2878,0.2909,0.2947,0.2924,0.2944,0.2945,0.2941,0.2934,0.2934,0.2934,0.2934,0.2383,0.2398,0.2483,0.255,0.2622,0.2689,0.2771,0.2845,0.2923,0.2956,0.2965,0.2963,0.2962,0.2984,0.2984,0.298,0.2983,0.2984,0.2984,0.2398,0.2422,0.2479,0.2552,0.2635,0.2706,0.2785,0.2862,0.2952,0.2987,0.2983,0.2981,0.2979,0.2976,0.3011,0.301,0.3005,0,0]},{"header":{"parameterUnit":"m.s-1","parameterCategory":1,"la1":30.2992,"la2":30.254,"lo1":-89.0895,"lo2":-89.0443,"dy":0.0025,"dx":0.0025,"nx":19,"ny":19,"refTime":"2026-04-26T09:00:00:Z","depth":0,"parameterNumber":3,"parameterNumberName":"V-component_of_WINDS"},"data":[0,0,0,0.6434,0.6434,0.6444,0.6444,0.6461,0.6461,0,0,0,0,0,0,0,0,0,0,0,0.6434,0.6435,0.6434,0.6434,0.6444,0.6444,0.6461,0.6461,0,0,0,0,0,0,0,0,0,0,0,0.6434,0.6435,0.6435,0.6434,0.6444,0.6444,0.6461,0.6452,0,0,0,0,0,0,0,0,0,0,0.6442,0.6445,0.6435,0.6435,0.6434,0.6444,0.6444,0.6451,0.6452,0.6459,0,0.6466,0,0.6464,0.6463,0.6463,0,0,0,0.6432,0.6444,0.6444,0.6435,0.6435,0.6444,0.6439,0.6452,0.6453,0.646,0.6466,0.6466,0.6464,0.6463,0.6463,0.651,0.651,0,0,0.6431,0.6438,0.6443,0.6445,0.6444,0.6439,0.6439,0.6453,0.6459,0.6466,0.6467,0.6464,0.6463,0.6463,0.651,0.651,0,0,0,0.6431,0.6437,0.6437,0.6445,0.6446,0.6439,0.644,0.6458,0.6458,0.6467,0.6465,0.6463,0.6463,0.6509,0.651,0.6534,0,0,0,0.6431,0.6438,0.6437,0.6441,0.6446,0.6452,0.6445,0.6457,0.6458,0.6465,0.6463,0.6464,0.6509,0.6509,0.6532,0.6544,0,0,0,0.6433,0.6438,0.644,0.6441,0.6445,0.6452,0.6452,0.6457,0.6457,0.6463,0.6464,0.6509,0.6509,0.6531,0.6542,0.656,0,0,0,0.6436,0.646,0.6441,0.6467,0.6445,0.6466,0.6452,0.6467,0.6475,0.6463,0.6509,0.651,0.6531,0.6541,0.6558,0.6576,0.6584,0,0,0.647,0.6465,0.648,0.6462,0.6489,0.6464,0.6494,0.6495,0.6489,0.6503,0.6504,0.6533,0.6542,0.6559,0.6624,0.663,0,0,0,0.6493,0.6504,0.651,0.6518,0.652,0.6522,0.6518,0.6518,0.653,0.6498,0.6543,0.6548,0.6558,0.6567,0.6572,0.6581,0.6514,0.6513,0.6513,0.6551,0.6543,0.6568,0.6561,0.657,0.6565,0.6571,0.6571,0.656,0.6571,0.6575,0.6615,0.6626,0.663,0.6639,0.6583,0.6583,0.6583,0.6583,0.6602,0.6617,0.6602,0.6621,0.6612,0.6628,0.6625,0.6616,0.663,0.6611,0.6619,0.6601,0.6637,0.6644,0.6585,0.6585,0.6584,0.6584,0.6584,0.664,0.6646,0.6647,0.6659,0.6669,0.6661,0.6675,0.6666,0.6657,0.6665,0.667,0.667,0.6669,0.6668,0.6668,0.6668,0.6668,0.6669,0.6669,0.6681,0.668,0.6693,0.6698,0.6703,0.6708,0.6704,0.6708,0.6711,0.6703,0.6703,0.6692,0.6641,0.663,0.6671,0.667,0.667,0.667,0.667,0.6737,0.6723,0.6744,0.6749,0.6753,0.6765,0.6753,0.6763,0.6765,0.6772,0.6759,0.6723,0.6716,0.6712,0.6702,0.676,0.676,0.676,0.676,0.6771,0.6766,0.6786,0.6795,0.6802,0.6794,0.6818,0.6815,0.681,0.6811,0.6801,0.6787,0.6783,0.6779,0.6773,0.6764,0.6836,0.6836,0.6836,0.6806,0.6802,0.6824,0.682,0.6823,0.6826,0.6849,0.686,0.685,0.6839,0.6812,0.6809,0.6786,0.6779,0.6768,0.676,0.6743,0,0]}]]